Location: Buckland
(65.9785°N, 161.1281°W)
Time: 22:10:15
(UTC+00:00)

SPROUT - Pass Details

Date: 23 January 2021
Orbit: 597 x 610 km, 97.9° (Epoch: 07 March)

Event Time Altitude Azimuth Distance (km) Brightness Sun altitude
Exits shadow 08:05:59 11° 352° (N) 1,943 ? -35.8°
Drops below altitude 10° 08:06:06 10° 351° (N) 1,979 ? -35.8°
Sets 08:08:45 0° 335° (NNW) 2,889 ? -36.1°
